Погода в Кюсюре

Погода в Кюсюре : погода сейчас, прогноз погоды и архив. Всё, что Вы хотите узнать о погоде в Кюсюре!

Хотите узнать прогноз погоды в Кюсюре? Тогда Вам сюда: Погода в Кюсюре

Поиск расширенной информации на нашем сайте:

Другие новости

Новости СМИ2

Главная страница сайта

Новости сайта

03.07.2017

Напоминаем, что на нашем специализированном сайте Метеоцентр.Азия вы можете получить высокодетализированные автоматические прогнозы погоды по пунктам России, СНГ и мира в авиационном формате (включающие направление и скорость ветра, видимость, явления погоды, количество и форму облачности, нижнюю и верхнюю границу облачности).


Погода в Кюсюре - сегодня

Время (UTC), дата Ветер
(°,м/с) 
Видим.   Явления Облачность Т
(°С)
Тd
(°С)
f(%) Тe
(°С)
Pmin
(гПа)
dP
(гПа)
Po
(мм)
O2
(г/м3)
Тmin Tmax R s Состояние
почвы
06 16.09.17 020 (С) 20000 м    6/0 верхняя 
[Ci fib]
+6 -2.2 56 +4  1008  -0.4  753  297           
09 16.09.17 020 (С) 20000 м    9/0 средняя, верхняя 
[Ac trans|Ci fib]
+2.8 -1.7 72 1008.1  0.1  753  300           
12 16.09.17 020 (С) 8-11{12}  20000 м    8/0 средняя 
[Ac trans]
+2 -1.7 76 -2  1008.5  0.4  753  301    +6.3       
00 17.09.17 020 (С) 9-13{14}  20000 м    6/0 средняя, верхняя 
[Ac trans|Ci fib]
+0.6 -4.4 69 -4  1008.9  0.3  753  303  +0.2        замёрзшая 
09 17.09.17 050 (СВ) 6{14}  20000 м    3/0 верхняя 
[Ci fib]
+1 -5 64 -2  1011.1  1.9  755  304           
12 17.09.17 060 (СВ) 9-13{13}  20000 м    3/3 1000 м 
[Sc]
-0.6 -4.1 77 -5  1011.8  0.7  756  306    +2.9       
18 17.09.17 050 (СВ) 5{10}  20000 м    3/3 1000 м 
[Sc]
-1.4 -4.3 81 -5  1013.5  0.5  757  307           
21 17.09.17 060 (СВ) 20000 м    4/3 1000 м средняя 
[Sc|Ac trans]
-1.6 -4.2 82 -5  1014.1  0.6  757  307           
00 18.09.17 050 (СВ) 20000 м    6/3 1000 м верхняя 
[Sc|Ci fib]
+0.2 -3.8 74 -3  1015.3  1.2  758  306  -2        замёрзшая 
03 18.09.17 050 (СВ) 20000 м    8/3 1000 м верхняя 
[Sc|Ci fib]
+1.4 -4.1 67 -2  1015.5  0.2  758  305           
06 18.09.17 040 (СВ) 20000 м    8/3 1000 м верхняя 
[Sc|Ci fib]
+3.7 -2.9 62 +2  1015.2  -0.3  758  302           
09 18.09.17 010 (С) 20000 м    10/5 1000 м средняя, верхняя 
[Ac trans|Cs]
+2.5 -3.1 66 1015.9  0.7  759  303           
12 18.09.17 030 (СВ) 20000 м    10/0 средняя 
[Ac und]
+1.5 -2.6 74 1016.7  0.8  759  305    +3.7       
15 18.09.17 030 (СВ) 20000 м    10/0 средняя 
[Ac und]
-1 -3.2 85 1017.2  0.5  760  308           
18 18.09.17 030 (СВ) 20000 м    3/0 средняя 
[Ac trans]
-4.2 -4.2 100 -5  1017.8  0.5  760  312           
21 18.09.17 010 (С) 10 км  дымка  10/10 300 м 
[Sc]
-2.9 -2.9 100 -4  1018.5  0.8  761  310           
00 19.09.17 010 (С) 20000 м    10/10 300 м 
[Sc]
-1.6 -2.2 96 -3  1018.7  0.2  761  309  -4.2        замёрзшая 
03 19.09.17 190 (Ю) 4000 м  слаб. снег  10/6 300 м средняя 
[Sc|As op]
-0.6 -1.2 96 -1  1018.3  -0.4  761  307           
06 19.09.17 190 (Ю) 20000 м  {снег}  8/8 600 м 
[Sc]
+0.6 -2.2 81 1017.3  -1  760  306           
09 19.09.17 190 (Ю) 20000 м    8/0 средняя 
[Ac trans]
+0.3 -2.9 79 +1  1016.2  -1.1  759  306           
12 19.09.17 190 (Ю) 20000 м    10/0 средняя 
[Ac und]
-1 -2.9 87 -2  1015.2  -1  758  307    +2.1  0.4     
15 19.09.17 190 (Ю) 20000 м    10/0 средняя 
[Ac und]
-1.5 -3.2 88 -2  1013.4  -1.8  757  307           
18 19.09.17 190 (Ю) 20000 м    6/0 средняя 
[Ac trans]
-2.4 -3.6 91 -3  1012.1  -1.3  756  308           
21 19.09.17 180 (Ю) 20000 м    10/10 300 м 
[Sc]
-2 -3.2 91 -3  1010.4  -1.7  755  307           
00 20.09.17 180 (Ю) 4000 м  дымка  10/10 300 м 
[Sc]
-2.4 -2.7 98 -3  1009.2  -1.2  754  307  -2.8        замёрзшая 
Время (UTC), дата Ветер
(°,м/с) 
Видим.   Явления Облачность Т
(°С)
Тd
(°С)
f(%) Тe
(°С)
Pmin
(гПа)
dP
(гПа)
Po
(мм)
O2
(г/м3)
Тmin Tmax R s Состояние
почвы

Для получения пояснительной информации подведите курсор к названию столбца.

ПОГОДА в Кюсюре - архив

Всё, что Вы хотите узнать о погоде в Кюсюре - удобно и подробно!

Выберите нужную дату (начиная с 1 января 2015* года) и нажмите кнопку "Найти".
Будут отображены архивные сводки погоды по пункту Кюсюр, начиная с указанной даты.


Отображать данные в формате CSV (для использования в таблицах Excel)


Внимание! Наш архив погоды предназначен исключительно для личного некоммерческого использования в познавательных целях. Если Вам необходимы официальные справки о состоянии погоды (для производственных, юридических, коммерческих и т.п. целей), обращайтесь в органы Росгидромета.

*Примечание: данная дата относится к архиву по метеостанциям СССР (Россия, СНГ, Балтия).
Архив по метеостанциям Зарубежной Европы и Азии (кроме Китая) хранится 10 дней, по другим регионам земного шара (Китай, Африка, Америка, Австралия, Океания) - 1 день.

Кюсюр - район местоположения метеостанции


Название, широта, долгота, высота метеостанции:
Кюсюр 70.7°ш. 127.4°д. 33 м над ур. моря [Российская Федерация]

Дополнительная информация

В oтличие oт бoльшинства пoгoдных сайтoв мы публикуем пoдрoбную метеoинфoрмацию в детальнoм прoфессиoнальнoм фoрмате.

Характеристики температуры и влажнoсти вoздуха измеряются на высoте 2 м в тени вдали oт зданий и деревьев.
Скoрoсть ветра измеряется на высoте 10 м (на урoвне рoста челoвека скoрoсть ветра ниже в 1.5-2 раза). Если метеoстанция нахoдится в гoрoде или в лесу, тo скoрoсть ветра занижена на 2-4 м/с пo сравнению с oткрытым местoм. Скoрoсть ветра над акватoриями крупных рек и oзёр, а также на вершинах хoлмoв на 2-5 м/с выше, чем в oбычных услoвиях.
Атмoсфернoе давление в разных тoчках местнoсти мoжет значительнo oтличаться oт давления на метеoстанции, в зависимoсти oт услoвий рельефа (при пoдъёме на 10 м давление пoнижается примернo на 1 мм рт.ст.).